Weather History for Lexington, KY

Change the Weather History Date:

Tuesday, January 21, 2014

  Actual Average Record
Temperature  
Mean Temperature 19 °F 33 °F  
Max Temperature 35 °F 41 °F 72 °F (1906)
Min Temperature 3 °F 25 °F -17 °F (1984)
Degree Days  
Heating Degree Days 46 32  
Month to date heating degree days 716 672  
Since 1 July heating degree days 2474 2460  
Cooling Degree Days 0 0  
Month to date cooling degree days 0 0  
Year to date cooling degree days 0 0  
Moisture  
Dew Point 17 °F    
Average Humidity 75    
Maximum Humidity 92    
Minimum Humidity 57    
Precipitation  
Precipitation 0.15 in 0.10 in 2.53 in (1933)
Month to date precipitation 2.20 2.16  
Year to date precipitation 2.20 2.16  
Snow  
Snow 2.00 in 0.10 in 1.40 in (1979)
Month to date snowfall 4.0 2.5  
Since 1 July snowfall 6.0 5.3  
Snow Depth T in    
Sea Level Pressure  
Sea Level Pressure 29.92 in    
Wind  
Wind Speed 12 mph (North)    
Max Wind Speed 29 mph    
Max Gust Speed 33 mph    
Visibility 4 miles    
Events Fog , Snow    
T = Trace of Precipitation, MM = Missing Value Source: NWS Daily Summary

Daily Weather History Graph

Daily Weather History Graph

Search for Another Location

Airport:

Trip Planner

Search our weather history database for the weather conditions in past years. The results will help you decide how hot, cold, wet, or windy it might be!

Date:

Astronomy

Jan. 21, 2014 Rise Set
Actual Time 7:50 AM EST 5:49 PM EST
Civil Twilight 7:22 AM EST 6:17 PM EST
Nautical Twilight 6:50 AM EST 6:49 PM EST
Astronomical Twilight 6:18 AM EST 7:21 PM EST
Moon 11:15 PM EST (1/21) 10:25 AM EST (1/21)
Length of Visible Light 10h 55m
Length of Day
9h 58m
Waning Gibbous, 75% of the Moon is Illuminated
Jan 21
Waning Gibbous
Jan 24
Last Quarter
Jan 30
New
Feb 6
First Quarter
Feb 14
Full

Hourly Weather History & Observations

Time (EST) Temp. Windchill Dew Point Humidity Pressure Visibility Wind Dir Wind Speed Gust Speed Precip Events Conditions
12:54 AM 34.0 °F 25.5 °F 27.0 °F 75% 29.83 in 10.0 mi NE 11.5 mph - N/A   Overcast
1:54 AM 34.0 °F 26.6 °F 27.0 °F 75% 29.81 in 10.0 mi NE 9.2 mph - N/A   Overcast
2:54 AM 34.0 °F 28.8 °F 27.0 °F 75% 29.81 in 10.0 mi ENE 5.8 mph - N/A   Overcast
3:54 AM 34.0 °F 26.6 °F 28.0 °F 79% 29.78 in 9.0 mi East 9.2 mph - 0.00 in   Overcast
4:54 AM 32.0 °F 24.2 °F 28.0 °F 85% 29.75 in 10.0 mi East 9.2 mph - 0.00 in   Overcast
5:45 AM 32.0 °F - 28.9 °F 88% 29.74 in 10.0 mi Calm Calm - N/A   Overcast
5:54 AM 33.1 °F 28.7 °F 28.9 °F 85% 29.75 in 9.0 mi East 4.6 mph - 0.00 in   Overcast
6:05 AM 32.0 °F 26.4 °F 28.9 °F 88% 29.73 in 1.8 mi East 5.8 mph - 0.00 in Snow Light Snow
6:15 AM 32.0 °F 28.7 °F 30.0 °F 92% 29.74 in 0.8 mi ESE 3.5 mph - 0.01 in Snow Light Snow
6:23 AM 32.0 °F - 30.0 °F 92% 29.74 in 2.0 mi Calm Calm - 0.01 in Snow Light Snow
6:43 AM 32.0 °F 26.4 °F 30.0 °F 92% 29.76 in 1.0 mi WNW 5.8 mph - 0.02 in Snow Light Snow
6:50 AM 32.0 °F 27.5 °F 30.2 °F 93% 29.76 in 0.8 mi WNW 4.6 mph - 0.03 in Snow Light Snow
6:54 AM 32.0 °F 26.4 °F 30.0 °F 92% 29.78 in 0.8 mi WNW 5.8 mph - 0.03 in Snow Light Snow
7:47 AM 30.9 °F 25.2 °F 30.0 °F 96% 29.76 in 0.5 mi North 5.8 mph - 0.05 in Fog , Snow Snow
7:54 AM 30.9 °F 23.5 °F 28.9 °F 92% 29.78 in 0.5 mi North 8.1 mph - 0.05 in Fog , Snow Snow
8:09 AM 30.9 °F 22.8 °F 28.9 °F 92% 29.77 in 0.8 mi North 9.2 mph - 0.01 in Snow Light Snow
8:54 AM 30.9 °F 22.2 °F 28.9 °F 92% 29.80 in 0.5 mi North 10.4 mph - 0.03 in Fog , Snow Snow
9:20 AM 30.9 °F 22.2 °F 28.9 °F 92% 29.79 in 0.5 mi North 10.4 mph - 0.02 in Fog , Snow Snow
9:46 AM 25.0 °F 11.3 °F 21.9 °F 88% 29.82 in 1.0 mi North 18.4 mph 27.6 mph 0.03 in Snow Light Snow
9:52 AM 24.8 °F 10.3 °F 21.2 °F 86% 29.83 in 2.0 mi North 20.7 mph 27.6 mph 0.03 in Snow Light Snow
9:54 AM 25.0 °F 10.9 °F 21.0 °F 85% 29.86 in 2.5 mi North 19.6 mph 27.6 mph 0.03 in Snow Light Snow
10:02 AM 24.1 °F 8.7 °F 19.9 °F 84% 29.84 in 3.0 mi North 23.0 mph 32.2 mph 0.00 in Snow Light Snow
10:19 AM 24.1 °F 10.1 °F 19.0 °F 81% 29.86 in 1.8 mi North 18.4 mph 27.6 mph 0.00 in Snow Light Snow
10:49 AM 19.4 °F 2.8 °F 15.8 °F 86% 29.90 in 2.0 mi North 21.9 mph 26.5 mph 0.00 in Snow Light Snow
10:50 AM 19.9 °F 3.9 °F 15.1 °F 81% 29.93 in 2.0 mi North 20.7 mph 26.5 mph 0.00 in Snow Light Snow
11:08 AM 19.9 °F 4.3 °F 15.1 °F 81% 29.91 in 1.0 mi NNW 19.6 mph 26.5 mph 0.00 in Snow Light Snow
11:13 AM 19.0 °F 2.4 °F 15.1 °F 85% 29.92 in 0.5 mi North 21.9 mph 28.8 mph 0.00 in Fog , Snow Snow
11:20 AM 19.0 °F 2.4 °F 14.0 °F 81% 29.92 in 0.5 mi North 21.9 mph 28.8 mph 0.00 in Snow Snow
11:44 AM 18.0 °F 2.2 °F 14.0 °F 84% 29.94 in 0.5 mi North 18.4 mph 25.3 mph 0.00 in Fog , Snow Snow
11:54 AM 18.0 °F 1.7 °F 12.9 °F 81% 29.98 in 0.8 mi North 19.6 mph 24.2 mph 0.01 in Snow Light Snow
12:07 PM 18.0 °F 1.7 °F 12.9 °F 81% 29.95 in 1.0 mi North 19.6 mph 26.5 mph 0.00 in Snow Light Snow
12:37 PM 17.1 °F 2.0 °F 12.0 °F 81% 29.96 in 1.2 mi NNW 16.1 mph - 0.00 in Snow Light Snow
12:47 PM 17.1 °F -0.3 °F 10.9 °F 77% 29.96 in 2.0 mi NNW 21.9 mph 28.8 mph 0.00 in Snow Light Snow
12:54 PM 16.0 °F -1.7 °F 10.0 °F 77% 30.00 in 2.0 mi NNW 21.9 mph - 0.00 in Snow Light Snow
1:14 PM 16.0 °F 0.1 °F 10.0 °F 77% 29.97 in 1.2 mi NNW 17.3 mph 24.2 mph 0.00 in Snow Light Snow
1:54 PM 16.0 °F 0.6 °F 10.0 °F 77% 30.02 in 1.2 mi NNW 16.1 mph - 0.00 in Snow Light Snow
2:30 PM 16.0 °F 0.6 °F 10.0 °F 77% 30.00 in 1.5 mi NNW 16.1 mph - 0.00 in Snow Light Snow
2:54 PM 16.0 °F 1.1 °F 10.0 °F 77% 30.05 in 1.2 mi NNW 15.0 mph 23.0 mph 0.00 in Snow Light Snow
3:15 PM 16.0 °F 0.1 °F 9.0 °F 74% 30.03 in 3.0 mi NNW 17.3 mph - 0.00 in Snow Light Snow
3:32 PM 16.0 °F 0.6 °F 8.1 °F 71% 30.04 in 7.0 mi NNW 16.1 mph - 0.00 in Snow Light Snow
3:54 PM 16.0 °F -0.4 °F 6.1 °F 65% 30.09 in 10.0 mi NNW 18.4 mph - 0.00 in   Overcast
4:54 PM 16.0 °F 1.1 °F 3.9 °F 59% 30.11 in 10.0 mi North 15.0 mph - N/A   Overcast
5:54 PM 14.0 °F -0.2 °F 1.9 °F 59% 30.15 in 10.0 mi NNW 12.7 mph - N/A   Clear
6:54 PM 12.0 °F -0.4 °F -0.0 °F 59% 30.18 in 10.0 mi NNW 9.2 mph - N/A   Scattered Clouds
7:54 PM 10.9 °F -2.6 °F -0.9 °F 59% 30.19 in 10.0 mi NNW 10.4 mph - N/A   Scattered Clouds
8:54 PM 8.1 °F -4.3 °F -4.0 °F 58% 30.19 in 10.0 mi NNW 8.1 mph - N/A   Clear
9:54 PM 5.0 °F -5.6 °F -4.0 °F 66% 30.21 in 10.0 mi NNW 5.8 mph - N/A   Clear
10:54 PM 3.9 °F -6.9 °F -4.0 °F 70% 30.22 in 10.0 mi NNW 5.8 mph - N/A   Clear
11:54 PM 3.9 °F -6.9 °F -5.1 °F 66% 30.22 in 10.0 mi NW 5.8 mph - N/A   Clear